Weather History for St. George, AK

Change the Weather History Date:

Sunday, February 17, 2013

  Actual Average Record
Temperature  
Mean Temperature 16 °F -  
Max Temperature 23 °F 30 °F 39 °F (2005)
Min Temperature 10 °F 24 °F 3 °F (2002)
Degree Days  
Heating Degree Days 48    
Moisture  
Dew Point 12 °F    
Average Humidity 89    
Maximum Humidity 93    
Minimum Humidity 79    
Precipitation  
Precipitation 0.00 in - - ()
Sea Level Pressure  
Sea Level Pressure 30.14 in    
Wind  
Wind Speed 23 mph (ENE)    
Max Wind Speed 48 mph    
Max Gust Speed 58 mph    
Visibility 2 miles    
Events Fog , Snow    
Averages and records for this station are not official NWS values.
T = Trace of Precipitation, MM = Missing Value Source: NWS Daily Summary

Daily Weather History Graph

Daily Weather History Graph

Search for Another Location

Airport:

Trip Planner

Search our weather history database for the weather conditions in past years. The results will help you decide how hot, cold, wet, or windy it might be!

Date:

Astronomy

Feb. 17, 2013 Rise Set
Actual Time 9:39 AM AKST 7:26 PM AKST
Civil Twilight 9:00 AM AKST 8:05 PM AKST
Nautical Twilight 8:16 AM AKST 8:49 PM AKST
Astronomical Twilight 7:32 AM AKST 9:33 PM AKST
Moon 12:09 PM AKST (2/17) 4:04 AM AKST (2/17)
Length of Visible Light 11h 05m
Length of Day
9h 47m
Waxing Crescent, 50% of the Moon is Illuminated
Feb 17
Waxing Crescent
Feb 25
Full
Mar 4
Last Quarter
Mar 11
New
Mar 19
First Quarter

Hourly Weather History & Observations

Time (AKST) Temp. Windchill Dew Point Humidity Pressure Visibility Wind Dir Wind Speed Gust Speed Precip Events Conditions
12:03 AM 12.2 °F -4.8 °F 10.4 °F 92% 30.11 in 1.2 mi NE 17.3 mph 27.6 mph 0.00 in Snow Light Snow
12:20 AM 12.2 °F -5.8 °F 8.6 °F 85% 30.12 in 3.0 mi NE 19.6 mph - 0.00 in   Overcast
12:32 AM 12.2 °F -5.8 °F 10.4 °F 92% 30.13 in 2.0 mi NNE 19.6 mph - 0.00 in Snow Light Snow
12:40 AM 12.2 °F -7.1 °F 10.4 °F 92% 30.14 in 1.5 mi NNE 23.0 mph 28.8 mph 0.00 in Snow Light Snow
12:50 AM 12.2 °F -6.3 °F 10.4 °F 92% 30.14 in 2.5 mi NNE 20.7 mph - 0.00 in Snow Light Snow
12:53 AM 12.0 °F -6.9 °F 10.0 °F 92% 30.11 in 2.0 mi NNE 21.9 mph - 0.00 in Snow Light Snow
1:00 AM 12.2 °F -6.3 °F 10.4 °F 92% 30.15 in 1.8 mi NNE 20.7 mph - 0.00 in Snow Light Snow
1:08 AM 12.2 °F -6.7 °F 10.4 °F 92% 30.15 in 2.0 mi NNE 21.9 mph 27.6 mph 0.00 in Snow Light Snow
1:16 AM 12.2 °F -6.3 °F 10.4 °F 92% 30.15 in 1.5 mi NNE 20.7 mph 27.6 mph 0.00 in Snow Light Snow
1:27 AM 12.2 °F -5.8 °F 10.4 °F 92% 30.15 in 1.0 mi NNE 19.6 mph 28.8 mph 0.00 in Snow Light Snow
1:53 AM 12.0 °F -7.3 °F 10.0 °F 92% 30.13 in 0.8 mi NNE 23.0 mph 29.9 mph 0.00 in Snow Light Snow
2:53 AM 12.0 °F -9.8 °F 9.0 °F 88% 30.11 in 0.8 mi NNE 31.1 mph 35.7 mph 0.00 in Snow Light Snow
3:08 AM 10.4 °F -12.0 °F 8.6 °F 92% 30.15 in 1.0 mi NNE 31.1 mph - 0.00 in Snow Light Snow
3:19 AM 10.4 °F -9.1 °F 8.6 °F 92% 30.17 in 1.2 mi NE 21.9 mph 33.4 mph 0.00 in Snow Light Snow
3:51 AM 12.2 °F -10.2 °F 8.6 °F 85% 30.15 in 0.8 mi NNE 33.4 mph 38.0 mph 0.00 in Snow Light Snow
3:52 AM 12.0 °F -9.8 °F 9.0 °F 88% 30.13 in 0.8 mi NNE 31.1 mph 38.0 mph 0.00 in Snow Light Snow
4:10 AM 12.2 °F -4.3 °F 10.4 °F 92% 30.21 in 1.2 mi NNE 16.1 mph 32.2 mph 0.00 in Snow Light Snow
4:18 AM 12.2 °F -2.5 °F 8.6 °F 85% 30.23 in 3.0 mi NNE 12.7 mph 21.9 mph 0.00 in   Overcast
4:53 AM 12.0 °F -5.1 °F 8.1 °F 84% 30.21 in 9.0 mi NNE 17.3 mph - 0.00 in   Overcast
5:53 AM 12.0 °F -7.3 °F 9.0 °F 88% 30.19 in 6.0 mi NE 23.0 mph - 0.00 in   Overcast
6:53 AM 12.0 °F -6.5 °F 8.1 °F 84% 30.21 in 5.0 mi NE 20.7 mph 27.6 mph 0.00 in   Overcast
7:53 AM 12.9 °F -2.2 °F 9.0 °F 84% 30.25 in 6.0 mi ENE 13.8 mph 24.2 mph 0.00 in Snow Light Snow
8:53 AM 12.9 °F -4.4 °F 10.0 °F 88% 30.24 in 5.0 mi ENE 18.4 mph - 0.00 in Snow Light Snow
9:53 AM 12.9 °F -5.3 °F 10.0 °F 88% 30.23 in 3.0 mi ENE 20.7 mph - 0.00 in Snow Light Snow
10:53 AM 12.9 °F -4.9 °F 9.0 °F 84% 30.25 in 6.0 mi ENE 19.6 mph - 0.00 in Snow Light Snow
11:53 AM 12.9 °F -4.9 °F 9.0 °F 84% 30.24 in 5.0 mi ENE 19.6 mph - 0.00 in Snow Light Snow
12:13 PM 12.2 °F -6.3 °F 10.4 °F 92% 30.27 in 2.5 mi East 20.7 mph - 0.00 in Snow Light Snow
12:22 PM 12.2 °F -5.3 °F 10.4 °F 92% 30.27 in 4.0 mi East 18.4 mph - 0.00 in Snow Light Snow
12:36 PM 14.0 °F -3.9 °F 10.4 °F 86% 30.26 in 1.8 mi East 20.7 mph - 0.00 in Snow Light Snow
12:53 PM 14.0 °F -4.7 °F 10.9 °F 88% 30.23 in 1.2 mi East 23.0 mph - 0.00 in Snow Light Snow
1:11 PM 14.0 °F -3.0 °F 10.4 °F 86% 30.27 in 2.5 mi East 18.4 mph - 0.00 in Snow Light Snow
1:22 PM 14.0 °F -3.4 °F 10.4 °F 86% 30.28 in 1.5 mi East 19.6 mph - 0.00 in Snow Light Snow
1:32 PM 14.0 °F -3.4 °F 10.4 °F 86% 30.28 in 2.5 mi East 19.6 mph - 0.00 in Snow Light Snow
1:53 PM 14.0 °F -3.4 °F 10.9 °F 88% 30.24 in 2.0 mi East 19.6 mph 25.3 mph 0.00 in Snow Light Snow
2:07 PM 14.0 °F -4.3 °F 12.2 °F 93% 30.26 in 1.2 mi East 21.9 mph - 0.00 in Snow Light Snow
2:36 PM 15.8 °F -1.5 °F 10.4 °F 79% 30.25 in 2.5 mi East 20.7 mph - 0.00 in   Overcast
2:53 PM 15.1 °F -3.3 °F 12.0 °F 88% 30.21 in 1.2 mi East 23.0 mph - 0.00 in   Overcast
3:07 PM 15.8 °F -2.3 °F 12.2 °F 86% 30.22 in 2.0 mi East 23.0 mph 28.8 mph 0.00 in   Overcast
3:15 PM 15.8 °F -2.7 °F 12.2 °F 86% 30.22 in 1.5 mi East 24.2 mph - 0.00 in   Overcast
3:27 PM 15.8 °F -1.9 °F 12.2 °F 86% 30.21 in 2.5 mi East 21.9 mph - 0.00 in   Overcast
3:53 PM 17.1 °F -0.6 °F 12.9 °F 84% 30.17 in 3.0 mi East 23.0 mph - 0.00 in   Overcast
4:08 PM 17.6 °F 0.5 °F 14.0 °F 86% 30.19 in 2.5 mi East 21.9 mph - N/A   Overcast
4:18 PM 17.6 °F -0.3 °F 14.0 °F 86% 30.18 in 3.0 mi East 24.2 mph - N/A   Overcast
4:26 PM 17.6 °F 0.5 °F 14.0 °F 86% 30.17 in 2.5 mi East 21.9 mph - N/A   Overcast
4:53 PM 18.0 °F -0.8 °F 15.1 °F 88% 30.11 in 1.5 mi East 27.6 mph 32.2 mph 0.00 in   Overcast
5:07 PM 17.6 °F -0.3 °F 15.8 °F 93% 30.14 in 2.5 mi East 24.2 mph - 0.00 in   Overcast
5:19 PM 17.6 °F -1.0 °F 15.8 °F 93% 30.12 in 1.0 mi East 26.5 mph 33.4 mph 0.00 in   Overcast
5:28 PM 17.6 °F -1.3 °F 15.8 °F 93% 30.12 in 0.8 mi East 27.6 mph 34.5 mph 0.00 in Snow Light Snow
5:53 PM 18.0 °F -2.3 °F 16.0 °F 92% 30.06 in 0.2 mi East 33.4 mph 40.3 mph 0.00 in Fog , Snow Light Snow
6:53 PM 19.0 °F -1.1 °F 16.0 °F 88% 30.04 in 0.8 mi East 34.5 mph 41.4 mph 0.00 in Snow Light Snow
8:53 PM 19.9 °F -0.8 °F 18.0 °F 92% 29.95 in 0.2 mi East 39.1 mph 46.0 mph 0.00 in Fog Light Freezing Fog
9:53 PM 21.0 °F -0.2 °F 19.0 °F 92% 29.88 in 0.2 mi East 43.7 mph 50.6 mph 0.00 in Fog Light Freezing Fog
10:53 PM 21.9 °F 0.5 °F 19.9 °F 92% 29.83 in 0.2 mi East 47.2 mph 55.2 mph N/A Fog Light Freezing Fog
11:18 PM 23.0 °F 1.8 °F 19.4 °F 86% 29.84 in 0.2 mi East 48.3 mph 56.4 mph N/A Fog Light Freezing Fog
11:30 PM 23.0 °F 2.0 °F 21.2 °F 93% 29.83 in 0.2 mi East 47.2 mph 57.5 mph N/A Fog Light Freezing Fog
11:49 PM 23.0 °F 1.8 °F 21.2 °F 93% 29.82 in 0.2 mi East 48.3 mph 57.5 mph N/A Fog Light Freezing Fog
11:53 PM 23.0 °F 2.0 °F 21.0 °F 92% 29.79 in 0.2 mi East 47.2 mph 57.5 mph N/A Fog Light Freezing Fog